sat.trackr.live / text

‹ back to catalog

LEMUR-2-TEODOR

NORAD 66768 · 2025-276DG

PAYLOAD ACTIVE UNKNOWN

§ Identity

Operator
Country
US
Launch date
2025-11-28
Launch site
AFWTR
Launch vehicle
Mass (kg)
RCS (m²)

Purposes: earth_obs

External: N2YO · Heavens-Above · Gunter

§ Orbital elements

Epoch: 2026-09-20T03:33:02.745216Z

Period
94.62 min
Inclination
97.4071°
Eccentricity
0.0001806
Mean motion
15.21918432 rev/d
Perigee alt
498.8 km
Apogee alt
501.3 km
Semi-major
6,878.2 km
B*
1.6793e-4
RAAN
335.4669°
Arg perigee
119.0777°
Mean anomaly
241.0640°
Rev number
4,488

§ Raw data

LEMUR-2-TEODOR1 66768U 25276DG  26263.14794844  .00003755  00000+0  16793-3 0  99932 66768  97.4071 335.4669 0001806 119.0777 241.0640 15.21918432 44883

JSON: /api/v1/satellites/66768 · /tle

For live sub-satellite position, see the globe view (requires WebGL).

§ Visibility from observer

Set your observer location to see the next 7 days of passes ≥ 10°. The values pass through the URL so the page stays shareable.

No JS? Fill the form by hand. The geolocation button needs JavaScript.